SCP
0 0 0 0 0 0 0 0 0 0 0 0 0 0 0 0 0 0 0 0 0 0
0 0 0 0 0 0 0 0 0 0 0 0 0 0 0 0 0 0 0 0 0 0
0 0 0 0 0 0 0 0 0 0 0 0 0 0 0 0 0 0 0 0 0 0
0 0 0 0 0 0 0 0 0 0 0 0 0 0 0 0 0 0 0 0 0 0
0 0 0 0 0 0 0 0 0 0 0 0 0 0 0 0 0 0 0 0 0 0
0 0 0 0 0 0 0 0 0 0 0 0 0 0 0 0 0 0 0 0 0 0
0 0 0 0 0 0 0 0 0 0 0 0 0 0 0 0 0 0 0 0 0 0
0 0 0 0 0 0 0 0 0 0 0 0 0 0 0 0 0 0 0 0 0 0
0 0 0 0 0 0 0 0 0 0 0 0 0 0 0 0 0 0 0 0 0 0
0 0 0 0 0 0 0 0 0 0 0 0 0 0 0 0 0 0 0 0 0 0
0 0 0 0 0 0 0 0 0 0 0 0 0 0 0 0 0 0 0 0 0 0
0 0 0 0 0 0 0 0 0 0 0 0 0 0 0 0 0 0 0 0 0 0
0 0 0 0 0 0 0 0 0 0 0 0 0 0 0 0 0 0 0 0 0 0
0 0 0 0 0 0 0 0 0 0 0 0 0 0 0 0 0 0 0 0 0 0
Wind_Speed_500mb
23 28 31 34 39 43 46 47 45 45 48 46 47 52 56 59 57 53 53 52 49 53
6 10 14 18 24 31 39 46 49 50 49 48 46 49 55 61 63 61 58 58 55 57
11 12 14 18 21 23 25 32 41 48 52 52 48 47 53 58 64 66 64 62 62 62
14 18 19 20 21 23 25 28 31 38 44 49 52 50 51 56 63 68 68 66 67 67
19 21 24 25 27 27 28 29 30 31 37 45 49 51 54 56 61 67 71 71 71 71
26 28 29 31 32 31 34 34 35 35 37 40 43 48 53 57 63 70 70 71 73 72
30 31 31 33 35 36 35 39 40 41 36 36 39 45 49 55 60 65 72 76 72 71
28 29 31 32 33 36 38 37 38 40 43 44 43 46 50 53 58 63 67 72 76 75
26 27 28 30 31 34 36 37 38 38 40 43 44 48 51 53 57 61 65 70 74 74
26 26 28 29 31 34 37 39 41 43 42 44 44 43 42 49 56 63 67 70 71 74
31 31 31 32 35 37 40 42 46 45 45 44 43 39 39 40 46 55 62 68 72 74
31 32 32 34 35 40 43 44 45 46 42 44 43 43 44 42 45 50 54 58 63 69
27 28 31 34 38 41 42 43 45 44 40 43 45 50 51 50 50 52 53 54 56 61
23 28 30 32 35 37 39 39 39 38 37 41 45 49 53 55 55 56 57 58 58 57
Wind_Direction_500mb
240 247 253 256 258 260 264 271 276 274 274 271 267 260 256 256 256 255 254 253 244 239
228 257 264 261 260 260 258 261 269 275 275 274 269 265 260 257 257 256 255 255 251 243
285 282 287 286 282 275 269 263 262 267 274 278 276 269 264 261 259 256 255 255 254 251
298 294 294 300 300 295 286 276 269 266 268 271 275 275 270 264 262 260 257 255 255 254
298 293 290 287 289 292 292 289 282 273 268 267 269 270 269 268 265 263 259 256 255 256
281 280 279 281 282 284 284 284 283 279 272 265 264 265 263 263 262 263 264 263 259 258
281 281 282 281 282 282 281 281 279 279 279 274 268 261 262 262 264 263 264 262 265 261
286 285 285 290 289 288 286 287 287 284 279 273 270 264 263 260 262 263 265 265 263 262
292 292 290 293 296 296 296 295 289 286 285 280 273 269 263 262 260 260 262 263 266 266
296 294 292 294 295 296 294 294 290 286 282 282 279 276 270 265 261 261 259 261 263 266
298 292 290 289 291 290 289 291 290 287 279 277 279 283 280 274 266 263 262 261 261 262
301 297 294 291 290 285 285 284 285 284 282 277 279 282 278 274 271 269 268 267 264 262
312 315 314 311 307 304 300 297 291 288 282 274 271 270 270 269 270 270 271 271 269 264
326 328 320 314 309 303 300 296 295 296 289 278 269 264 265 264 263 266 269 269 270 269
Wind_Speed_850mb
23 28 31 34 39 43 46 47 45 45 48 46 47 52 56 59 57 53 53 52 49 53
6 10 14 18 24 31 39 46 49 50 49 48 46 49 55 61 63 61 58 58 55 57
11 12 14 18 21 23 25 32 41 48 52 52 48 47 53 58 64 66 64 62 62 62
14 18 19 20 21 23 25 28 31 38 44 49 52 50 51 56 63 68 68 66 67 67
19 21 24 25 27 27 28 29 30 31 37 45 49 51 54 56 61 67 71 71 71 71
26 28 29 31 32 31 34 34 35 35 37 40 43 48 53 57 63 70 70 71 73 72
30 31 31 33 35 36 35 39 40 41 36 36 39 45 49 55 60 65 72 76 72 71
28 29 31 32 33 36 38 37 38 40 43 44 43 46 50 53 58 63 67 72 76 75
26 27 28 30 31 34 36 37 38 38 40 43 44 48 51 53 57 61 65 70 74 74
26 26 28 29 31 34 37 39 41 43 42 44 44 43 42 49 56 63 67 70 71 74
31 31 31 32 35 37 40 42 46 45 45 44 43 39 39 40 46 55 62 68 72 74
31 32 32 34 35 40 43 44 45 46 42 44 43 43 44 42 45 50 54 58 63 69
27 28 31 34 38 41 42 43 45 44 40 43 45 50 51 50 50 52 53 54 56 61
23 28 30 32 35 37 39 39 39 38 37 41 45 49 53 55 55 56 57 58 58 57
Wind_Direction_850mb
240 247 253 256 258 260 264 271 276 274 274 271 267 260 256 256 256 255 254 253 244 239
228 257 264 261 260 260 258 261 269 275 275 274 269 265 260 257 257 256 255 255 251 243
285 282 287 286 282 275 269 263 262 267 274 278 276 269 264 261 259 256 255 255 254 251
298 294 294 300 300 295 286 276 269 266 268 271 275 275 270 264 262 260 257 255 255 254
298 293 290 287 289 292 292 289 282 273 268 267 269 270 269 268 265 263 259 256 255 256
281 280 279 281 282 284 284 284 283 279 272 265 264 265 263 263 262 263 264 263 259 258
281 281 282 281 282 282 281 281 279 279 279 274 268 261 262 262 264 263 264 262 265 261
286 285 285 290 289 288 286 287 287 284 279 273 270 264 263 260 262 263 265 265 263 262
292 292 290 293 296 296 296 295 289 286 285 280 273 269 263 262 260 260 262 263 266 266
296 294 292 294 295 296 294 294 290 286 282 282 279 276 270 265 261 261 259 261 263 266
298 292 290 289 291 290 289 291 290 287 279 277 279 283 280 274 266 263 262 261 261 262
301 297 294 291 290 285 285 284 285 284 282 277 279 282 278 274 271 269 268 267 264 262
312 315 314 311 307 304 300 297 291 288 282 274 271 270 270 269 270 270 271 271 269 264
326 328 320 314 309 303 300 296 295 296 289 278 269 264 265 264 263 266 269 269 270 269